Terminal Aerodrome Forecast
Issued by NWS Twin Cities, MN

Home | Current Version | Previous Version | Graphics & Text | Print | Product List | Glossary On
Versions: 1 2 3 4 5 6 7 8 9 10 11 12 13 14 15 16 17 18 19 20 21 22 23 24 25 26 27
000
FTUS43 KMPX 211400 AAA
TAFMSP
TAF AMD
KMSP 211454Z 2115/2218 33013G20KT P6SM SCT025 BKN040
      TEMPO 2115/2118 BKN025
     FM212000 33009KT P6SM SCT045
     FM220200 VRB03KT P6SM SKC
     FM221400 26006KT P6SM SKC=

USA.gov is the U.S. government's official web portal to all federal, state and local government web resources and services.